Date,TemperatureHighF,TemperatureAvgF,TemperatureLowF,DewpointHighF,DewpointAvgF,DewpointLowF,HumidityHigh,HumidityAvg,HumidityLow,PressureMaxIn,PressureMinIn,WindSpeedMaxMPH,WindSpeedAvgMPH,GustSpeedMaxMPH,PrecipitationSumIn
2012-1-1,51.1,43.4,36.3,43.0,37.5,32.7,89,80,58,30.06,29.64,26,9,26,0.00
2012-1-2,49.1,41.7,33.8,45.7,25.7,14.4,89,55,33,29.71,29.53,34,10,35,0.00
2012-1-3,33.8,24.5,11.8,16.4,5.2,-7.1,55,43,34,29.99,29.71,28,11,30,0.00
2012-1-4,27.3,18.5,8.8,3.5,-2.5,-5.5,55,40,26,30.09,29.91,23,10,25,0.00
2012-1-5,37.6,30.3,25.0,22.6,12.6,3.0,63,47,38,29.92,29.73,20,9,22,0.00
2012-1-6,42.6,34.6,26.8,34.4,25.1,10.9,82,68,49,29.95,29.74,15,6,16,0.00
2012-1-7,50.4,40.5,30.7,38.5,30.5,25.4,83,68,45,29.88,29.65,20,6,21,0.00
2012-1-8,45.5,39.5,29.3,26.5,21.8,12.9,59,49,41,30.27,29.88,18,8,20,0.00
2012-1-9,38.7,31.6,23.7,22.4,14.9,10.4,58,50,37,30.30,29.99,20,7,21,0.00
2012-1-10,46.4,38.2,32.5,30.6,25.7,22.8,89,62,43,29.99,29.75,21,8,23,0.00
2012-1-11,39.7,34.4,27.9,30.8,23.1,14.3,74,63,45,30.15,29.95,22,8,22,0.00
2012-1-12,41.9,39.0,32.4,39.3,34.7,28.9,91,85,69,30.08,29.44,43,17,44,1.02
2012-1-13,52.7,37.8,31.1,45.6,27.8,13.4,93,69,45,29.59,29.16,36,12,39,0.00
2012-1-14,33.1,28.9,17.1,17.9,12.4,2.1,59,50,39,29.99,29.57,27,13,29,0.00
2012-1-15,17.1,10.7,4.5,2.5,-5.8,-9.4,57,47,37,30.47,29.99,29,12,31,0.00
2012-1-16,33.8,20.7,8.6,30.0,5.2,-5.8,91,51,33,30.57,30.13,24,7,24,0.00
2012-1-17,45.9,38.9,32.4,42.2,34.4,30.0,91,84,69,30.13,29.47,56,7,57,0.04
2012-1-18,52.5,36.1,19.9,42.4,16.1,-3.1,86,45,30,30.14,29.42,39,15,40,0.00
2012-1-19,35.8,24.7,15.1,28.9,11.6,-2.5,82,57,37,30.30,29.94,29,10,31,0.00
2012-1-20,33.3,27.6,21.7,30.3,15.4,0.2,92,63,37,30.29,29.92,38,12,52,0.00
2012-1-21,22.1,19.6,16.3,18.1,10.3,-1.6,85,69,39,30.34,30.11,19,8,19,0.00
2012-1-22,29.7,22.7,14.0,19.7,13.2,5.7,72,67,59,30.57,30.33,16,7,20,0.00
2012-1-23,44.6,38.1,27.7,42.7,32.9,18.2,93,82,68,30.53,29.89,20,9,20,0.08
2012-1-24,55.4,49.0,41.4,49.5,39.6,27.5,93,72,52,30.04,29.86,20,6,24,0.00
2012-1-25,41.9,38.2,35.2,27.9,23.2,21.2,61,55,46,30.19,30.03,26,10,28,0.00
2012-1-26,40.3,34.7,30.4,34.7,26.5,20.4,91,73,50,30.22,30.00,46,7,48,0.00
2012-1-27,45.5,41.9,37.0,43.6,39.0,30.4,93,89,69,30.00,29.28,28,9,34,0.63
2012-1-28,43.9,40.2,36.5,34.0,28.0,22.7,75,62,47,30.00,29.58,30,9,30,0.00
2012-1-29,42.1,38.4,34.5,29.6,16.3,9.6,65,41,27,30.08,29.87,26,10,28,0.00
2012-1-30,38.3,34.7,29.1,28.4,15.9,7.3,87,47,28,30.29,29.93,32,9,35,0.00
2012-1-31,44.1,35.9,29.3,33.7,25.9,13.6,90,68,50,30.29,30.02,18,6,20,0.00
2012-2-1,57.7,42.7,32.2,41.2,33.9,29.0,91,73,52,30.03,29.77,27,7,32,0.00
2012-2-2,43.7,36.8,30.7,32.4,26.4,19.1,79,66,56,30.19,29.95,15,7,19,0.00
2012-2-3,37.4,31.1,24.6,19.5,12.5,5.1,63,47,27,30.37,30.19,23,8,26,0.00
2012-2-4,40.6,35.0,27.1,23.5,16.3,7.1,63,47,35,30.26,30.11,26,9,30,0.00
2012-2-5,33.8,27.7,20.1,21.6,10.4,6.5,61,48,34,30.18,30.07,15,6,15,0.00
2012-2-6,50.0,38.7,28.2,27.5,18.7,10.0,60,45,29,30.08,29.83,25,10,27,0.00
2012-2-7,43.3,39.0,29.8,26.9,21.0,11.1,58,48,39,30.24,29.87,17,8,21,0.00
2012-2-8,36.5,29.8,19.0,17.5,8.2,0.3,57,40,27,30.33,30.07,14,6,16,0.00
2012-2-9,46.8,38.3,31.8,20.7,11.7,7.2,57,34,21,30.09,29.96,19,7,19,0.00
2012-2-10,49.1,39.7,31.5,33.4,20.6,10.3,74,47,30,30.12,29.89,15,5,16,0.00
2012-2-11,40.5,34.2,29.7,32.4,28.0,13.8,90,78,51,29.90,29.51,18,6,21,0.00
2012-2-12,29.7,20.1,14.2,14.0,-0.7,-4.8,52,40,28,29.89,29.53,29,13,34,0.00
2012-2-13,40.6,29.9,14.5,20.7,11.0,-3.4,62,45,32,29.98,29.78,28,11,34,0.00
2012-2-14,41.5,36.3,30.2,28.5,19.1,9.5,72,50,29,30.12,29.98,13,6,14,0.00
2012-2-15,41.2,38.9,36.0,36.3,33.4,26.9,87,81,64,30.24,30.11,14,5,14,0.00
2012-2-16,43.2,38.5,32.5,36.6,31.9,27.1,89,77,59,30.28,30.06,43,8,43,0.00
2012-2-17,50.5,43.1,36.9,40.2,30.1,18.0,90,64,36,30.06,29.84,36,12,36,0.00
2012-2-18,46.4,38.6,32.5,29.7,20.5,15.5,81,50,30,29.96,29.83,26,10,27,0.00
2012-2-19,43.5,35.2,29.7,28.6,19.8,13.7,81,55,31,30.06,29.96,19,8,19,0.00
2012-2-20,39.9,32.1,26.1,14.4,10.9,5.8,57,42,24,30.31,30.00,24,8,26,0.00
2012-2-21,41.0,34.0,25.2,36.0,21.5,14.2,87,60,41,30.34,29.87,21,8,21,0.00
2012-2-22,55.4,45.8,38.7,36.7,32.0,23.6,91,63,30,29.87,29.55,19,6,23,0.00
2012-2-23,52.2,45.3,39.2,42.7,33.3,21.0,89,65,39,29.79,29.36,36,8,36,0.04
2012-2-24,41.4,38.6,35.8,39.3,31.2,21.5,93,76,53,29.81,29.17,41,9,42,0.35
2012-2-25,43.9,38.9,31.8,38.2,21.1,13.8,91,51,30,29.76,29.18,49,19,56,0.00
2012-2-26,39.6,32.4,26.4,16.2,3.6,-2.7,52,30,18,30.45,29.76,34,12,34,0.00
2012-2-27,46.2,37.6,25.5,33.6,21.8,6.0,70,53,35,30.47,30.03,15,7,19,0.00
2012-2-28,45.3,40.2,32.0,30.7,17.9,9.9,62,41,26,30.40,30.03,31,10,31,0.00
2012-2-29,36.3,33.2,30.6,33.8,21.4,11.0,92,65,38,30.39,29.93,33,10,34,0.00
2012-3-1,36.9,34.3,24.6,34.3,31.5,21.8,92,90,86,30.00,29.76,40,17,40,0.28
2012-3-2,37.2,27.6,21.9,30.5,22.9,18.1,89,82,73,30.17,29.98,26,8,34,0.00
2012-3-3,45.3,41.1,34.9,41.7,36.8,26.8,93,85,55,29.98,29.36,26,11,27,0.24
2012-3-4,42.1,38.0,32.9,26.9,21.1,17.3,66,51,39,29.68,29.53,18,7,20,0.00
2012-3-5,36.1,31.1,24.1,20.0,10.4,3.6,59,42,30,30.31,29.62,28,12,33,0.00
2012-3-6,38.7,28.8,18.3,16.9,2.9,-3.9,50,34,19,30.59,30.31,22,8,24,0.00
2012-3-7,60.1,45.8,33.8,35.4,29.0,13.7,74,53,31,30.59,30.24,22,5,23,0.00
2012-3-8,64.9,56.3,49.5,46.0,42.7,35.3,72,61,42,30.25,29.72,32,6,32,0.00
2012-3-9,59.0,43.2,36.0,47.4,23.3,12.9,76,47,30,30.14,29.70,46,10,46,0.00
2012-3-10,38.7,33.9,28.2,28.5,21.9,14.2,90,62,40,30.53,30.13,21,9,23,0.00
2012-3-11,57.7,45.0,33.8,31.4,23.8,19.5,70,46,24,30.52,30.25,23,7,13,0.00
2012-3-12,61.0,49.5,42.6,38.4,32.1,26.5,72,52,28,30.28,30.12,14,4,15,0.00
2012-3-13,61.3,53.7,47.3,49.7,43.2,34.4,86,68,48,30.12,29.88,11,3,12,0.04
2012-3-14,53.4,42.7,39.0,48.1,39.1,34.0,91,87,79,30.28,29.95,14,5,17,0.00
2012-3-15,39.2,37.5,36.3,34.4,30.8,28.5,84,77,68,30.39,30.26,18,7,20,0.00
2012-3-16,43.3,39.8,37.6,39.7,34.2,29.7,90,80,74,30.37,30.11,44,5,45,0.00
2012-3-17,47.3,43.3,39.6,39.5,38.1,36.5,91,82,71,30.39,30.17,10,4,10,0.00
2012-3-18,71.2,53.9,41.4,46.6,41.8,37.5,87,66,41,30.35,30.13,14,4,14,0.00
2012-3-19,66.7,53.5,44.8,48.6,44.1,40.9,86,71,48,30.28,30.12,15,5,16,0.00
2012-3-20,63.9,50.3,41.0,53.3,43.3,38.0,90,78,63,30.34,30.22,11,3,13,0.00
2012-3-21,76.6,64.7,56.8,55.1,53.1,48.8,87,68,43,30.35,30.24,16,5,17,0.00
2012-3-22,81.9,68.3,56.7,55.6,51.8,45.2,86,59,28,30.24,29.99,21,6,21,0.00
2012-3-23,73.8,64.7,53.8,51.1,37.4,16.7,76,41,17,30.14,29.99,25,7,28,0.00
2012-3-24,59.9,48.1,45.0,38.7,31.1,17.4,76,55,19,30.19,30.05,17,7,17,0.00
2012-3-25,46.6,44.0,41.9,39.6,36.9,32.2,88,76,62,30.06,29.72,14,7,15,0.00
2012-3-26,46.6,39.6,31.6,40.6,22.7,4.7,88,55,29,29.95,29.61,31,12,38,0.00
2012-3-27,47.5,35.8,26.2,4.7,-1.8,-7.0,31,21,11,30.18,29.95,32,11,32,0.00
2012-3-28,47.8,42.5,35.6,42.5,26.2,-1.2,87,57,19,30.16,29.56,17,6,18,0.04
2012-3-29,44.6,41.2,38.7,40.3,32.9,24.6,88,73,49,29.90,29.54,24,6,25,0.00
2012-3-30,48.6,40.9,33.8,28.5,18.1,4.4,63,43,17,30.05,29.90,27,10,29,0.00
2012-3-31,42.1,39.9,34.0,33.9,29.1,21.1,83,66,43,30.06,29.89,17,6,19,0.00
2012-4-1,46.6,40.6,34.2,39.0,33.1,28.8,88,75,56,29.90,29.63,31,6,42,0.04
2012-4-2,48.0,41.7,38.3,38.5,29.7,8.7,89,67,22,29.80,29.58,34,8,45,0.04
2012-4-3,57.9,44.9,34.0,30.6,11.4,6.9,51,27,15,29.83,29.71,23,8,26,0.00
2012-4-4,61.3,51.1,43.2,34.0,18.5,11.2,60,29,17,29.74,29.46,29,9,33,0.00
2012-4-5,50.0,43.2,38.5,30.4,22.5,18.2,67,45,32,29.90,29.64,29,10,36,0.00
2012-4-6,51.1,41.8,34.9,34.0,20.5,13.8,72,44,23,29.98,29.88,21,7,21,0.00
2012-4-7,47.3,41.0,35.4,29.1,20.5,13.6,64,44,26,30.03,29.94,18,6,19,0.00
2012-4-8,48.9,44.2,39.7,37.2,26.3,17.7,74,51,32,30.00,29.60,22,7,24,0.00
2012-4-9,56.1,49.6,43.5,37.8,29.4,25.9,77,46,35,29.64,29.48,30,13,34,0.00
2012-4-10,61.0,52.3,44.6,34.3,25.0,18.3,55,35,21,29.77,29.60,27,7,29,0.00
2012-4-11,52.2,46.4,41.9,38.7,32.4,26.4,75,59,42,29.87,29.75,21,7,22,0.00
2012-4-12,52.9,46.3,42.3,38.7,35.9,33.1,82,67,50,30.08,29.86,20,6,21,0.00
2012-4-13,55.2,47.3,38.3,40.2,33.7,21.3,84,62,28,30.16,30.01,13,6,15,0.00
2012-4-14,63.1,54.9,48.6,40.6,29.9,22.0,65,39,21,30.15,29.98,17,7,18,0.00
2012-4-15,76.8,62.4,55.0,51.6,44.4,32.1,75,53,38,30.01,29.89,22,4,22,0.00
2012-4-16,68.9,61.6,54.7,56.3,51.4,48.3,87,70,51,30.03,29.91,13,4,15,0.00
2012-4-17,84.4,69.4,52.5,53.5,37.4,19.3,90,42,10,30.12,29.88,24,8,26,0.00
2012-4-18,63.9,51.0,47.1,42.0,32.6,21.1,76,52,23,30.26,30.12,21,8,22,0.00
2012-4-19,55.9,51.1,46.9,45.9,42.9,40.0,78,73,65,30.15,29.97,17,6,18,0.00
2012-4-20,65.7,55.8,50.0,47.2,43.8,40.5,77,64,47,30.02,29.93,14,4,15,0.00
2012-4-21,67.3,56.2,50.5,52.6,49.0,43.4,89,77,55,29.93,29.71,13,4,14,0.00
2012-4-22,58.8,48.5,43.0,55.9,45.0,39.9,92,88,81,29.85,29.67,21,6,23,0.71
2012-4-23,54.1,50.9,43.0,51.8,47.6,40.3,93,89,75,29.70,29.31,29,11,30,1.77
2012-4-24,57.9,51.2,47.5,44.2,36.4,27.5,82,59,33,29.71,29.40,21,8,21,0.00
2012-4-25,62.2,52.6,46.4,42.2,33.0,23.7,84,51,25,29.88,29.71,24,6,26,0.00
2012-4-26,52.0,47.9,41.9,46.5,35.7,26.5,89,63,43,29.96,29.55,25,10,26,0.00
2012-4-27,55.2,50.2,40.1,51.9,33.8,20.0,92,56,34,29.98,29.48,34,15,38,0.00
2012-4-28,57.9,46.8,35.8,21.3,16.8,9.3,54,32,15,30.12,29.97,28,10,32,0.00
2012-4-29,57.7,48.8,40.1,21.2,13.0,4.5,42,25,13,30.22,29.99,31,9,33,0.00
2012-4-30,51.4,46.0,38.3,41.5,25.0,11.6,74,45,24,30.35,30.22,19,8,20,0.00
2012-5-1,49.5,46.5,44.6,43.1,41.0,35.6,91,82,62,30.24,30.06,31,11,32,0.35
2012-5-2,47.7,46.2,45.0,43.7,42.7,41.8,91,87,83,30.26,30.13,18,8,19,0.00
2012-5-3,49.6,47.5,46.0,45.6,43.7,42.3,90,87,82,30.23,30.13,11,6,12,0.00
2012-5-4,54.0,50.2,48.0,51.7,47.7,45.2,93,91,86,30.13,29.94,15,4,16,0.00
2012-5-5,54.0,50.0,45.3,49.2,47.1,43.1,93,90,81,30.10,29.94,59,5,60,0.00
2012-5-6,53.4,49.0,45.0,48.3,41.3,34.1,92,76,55,30.17,30.08,19,5,19,0.00
2012-5-7,54.9,51.5,47.3,46.0,43.3,37.6,88,74,53,30.17,30.11,16,6,16,0.00
2012-5-8,55.0,52.6,49.8,51.1,44.2,35.9,89,74,49,30.12,29.90,22,8,22,0.20
2012-5-9,58.3,55.2,52.2,56.0,52.6,49.4,92,91,88,29.90,29.61,10,2,10,0.24
2012-5-10,66.0,57.4,51.4,54.3,47.5,38.1,93,72,44,29.69,29.38,23,8,25,0.71
2012-5-11,62.1,53.6,46.2,41.5,35.8,28.2,71,53,29,30.05,29.68,28,9,29,0.00
2012-5-12,79.2,64.3,47.3,42.1,33.4,21.4,77,36,17,30.15,30.04,29,9,34,0.00
2012-5-13,69.8,61.4,55.4,51.0,46.2,40.7,72,58,39,30.17,30.07,11,4,16,0.00
2012-5-14,64.4,54.6,52.3,52.5,48.7,46.6,89,81,61,30.21,30.11,13,4,13,0.08
2012-5-15,60.4,56.6,53.8,53.2,51.7,50.0,92,84,72,30.19,29.98,17,7,19,0.16
2012-5-16,66.9,59.9,55.0,60.5,56.8,53.1,93,90,77,29.98,29.82,10,2,11,0.08
2012-5-17,68.9,60.4,53.1,58.6,41.8,31.2,90,54,26,30.16,29.87,29,7,29,0.00
2012-5-18,58.3,54.7,47.7,47.9,44.5,39.9,85,69,54,30.29,30.16,13,6,14,0.00
2012-5-19,61.2,56.3,47.7,48.6,44.2,38.3,80,64,54,30.21,30.16,9,4,9,0.00
2012-5-20,64.0,58.8,52.3,51.8,47.1,39.5,80,66,43,30.33,30.18,10,4,10,0.00
2012-5-21,57.9,56.5,52.7,55.3,52.7,46.7,93,87,73,30.32,30.10,13,6,15,0.00
2012-5-22,61.7,59.1,56.5,59.3,56.9,54.5,93,92,91,30.10,29.84,46,4,47,0.24
2012-5-23,66.7,61.3,58.3,59.9,57.5,56.1,93,87,77,30.08,29.85,10,3,10,0.00
2012-5-24,65.8,60.3,57.6,59.0,56.8,55.1,92,88,74,30.27,30.08,41,7,45,0.00
2012-5-25,66.4,60.3,57.2,63.5,57.4,54.9,93,90,81,30.29,30.13,43,7,48,0.00
2012-5-26,85.1,74.4,62.8,66.4,62.9,58.2,92,69,43,30.14,30.04,16,5,19,0.00
2012-5-27,69.8,63.9,60.4,59.7,53.0,43.6,84,68,43,30.20,30.03,17,7,17,0.00
2012-5-28,66.9,61.9,59.9,59.7,56.3,54.1,90,82,66,30.05,29.97,15,7,15,0.00
2012-5-29,63.0,60.5,58.8,60.2,57.8,54.8,93,91,81,29.99,29.73,23,7,23,0.16
2012-5-30,76.5,68.0,60.6,64.5,59.6,52.7,92,76,49,29.77,29.70,13,3,13,0.00
2012-5-31,79.9,69.2,60.8,62.1,56.4,45.8,87,66,32,29.93,29.72,16,5,16,0.00
2012-6-1,63.3,60.1,58.6,57.0,48.0,41.0,88,65,47,30.11,29.93,19,9,19,0.00
2012-6-2,60.6,58.4,55.9,57.3,53.6,46.1,92,85,66,30.04,29.70,31,18,32,0.79
2012-6-3,59.2,57.0,52.9,56.9,52.4,47.7,92,85,74,29.72,29.66,20,8,21,0.00
2012-6-4,53.1,50.7,49.8,47.9,46.9,44.6,91,87,80,29.80,29.60,50,8,51,0.00
2012-6-5,55.6,51.6,49.5,48.3,46.4,44.0,91,82,70,29.95,29.78,26,4,30,0.04
2012-6-6,57.6,54.2,49.3,51.1,48.2,43.7,91,81,67,30.02,29.93,15,5,15,0.00
2012-6-7,59.4,55.1,50.5,54.4,51.8,47.7,92,89,78,30.00,29.94,21,4,21,0.12
2012-6-8,72.7,60.3,53.8,60.3,54.8,51.5,93,83,50,29.95,29.76,15,4,17,0.00
2012-6-9,78.3,65.4,58.3,57.6,49.6,40.6,82,60,29,29.95,29.78,20,7,23,0.00
2012-6-10,72.9,62.4,58.1,56.0,51.3,40.6,83,68,33,30.25,29.95,14,6,15,0.00
2012-6-11,64.4,61.0,55.8,56.3,53.2,46.8,86,76,58,30.33,30.23,21,6,21,0.00
2012-6-12,69.8,63.4,59.9,57.7,55.2,47.5,86,75,60,30.24,30.00,13,4,14,0.00
2012-6-13,61.7,60.4,59.4,59.3,57.8,56.6,93,91,86,30.10,29.95,20,5,33,0.39
2012-6-14,67.8,62.1,57.0,59.1,52.8,40.1,93,73,37,30.28,30.10,16,5,19,0.00
2012-6-15,67.8,61.6,55.8,52.2,48.9,45.6,81,64,51,30.37,30.26,15,6,16,0.00
2012-6-16,63.9,58.2,53.4,53.7,50.8,48.1,84,76,64,30.40,30.30,18,8,20,0.00
2012-6-17,59.5,55.8,49.8,51.4,49.0,47.0,90,78,67,30.31,30.16,14,7,14,0.00
2012-6-18,62.4,58.9,55.8,56.1,50.1,45.0,86,73,55,30.19,30.14,17,7,19,0.00
2012-6-19,75.7,65.7,56.5,61.0,56.7,52.2,87,73,57,30.19,30.04,16,4,16,0.00
2012-6-20,95.7,81.2,66.2,71.3,65.8,59.5,83,62,42,30.05,29.87,21,6,21,0.00
2012-6-21,93.2,83.9,76.1,71.0,66.3,62.6,72,56,39,29.87,29.74,16,6,19,0.00
2012-6-22,93.4,81.2,73.0,69.3,64.5,59.8,86,59,34,29.78,29.70,20,6,25,0.08
2012-6-23,77.4,69.6,62.1,67.2,62.7,55.1,89,80,55,29.93,29.77,38,5,38,1.10
2012-6-24,82.4,70.4,61.5,60.2,55.1,42.2,88,62,27,29.96,29.88,19,6,21,0.00
2012-6-25,72.5,67.6,62.4,62.6,60.1,55.0,90,78,57,29.88,29.65,20,5,43,1.18
2012-6-26,72.3,63.8,59.0,59.2,55.7,51.5,91,76,53,29.66,29.54,20,8,23,0.12
2012-6-27,74.8,67.1,60.1,55.7,52.3,49.9,74,60,44,29.74,29.56,24,10,26,0.00
2012-6-28,79.0,68.7,65.1,58.9,54.9,51.7,76,62,42,29.76,29.71,20,6,24,0.00
2012-6-29,82.2,70.7,63.7,68.5,60.0,47.5,89,71,30,29.73,29.55,16,4,16,0.20
2012-6-30,89.1,80.4,70.3,62.2,52.9,48.5,58,40,27,29.74,29.64,26,9,27,0.00
2012-7-1,90.1,80.0,69.3,62.4,58.9,52.8,75,51,29,29.85,29.74,22,7,22,0.00
2012-7-2,79.3,72.0,68.2,65.6,59.7,54.7,83,66,45,29.90,29.82,13,4,16,0.16
2012-7-3,83.1,71.5,65.8,62.8,56.3,45.1,85,61,28,29.94,29.86,19,7,19,0.00
2012-7-4,76.5,70.7,65.5,70.5,64.6,59.3,91,81,71,29.87,29.68,12,3,14,0.24
2012-7-5,80.1,72.5,68.4,70.5,63.0,59.2,88,73,51,29.87,29.66,18,6,20,0.00
2012-7-6,77.0,71.1,65.3,65.2,62.4,60.0,84,74,58,29.93,29.84,9,4,11,0.00
2012-7-7,82.8,77.4,72.0,70.0,65.2,62.2,75,66,57,29.84,29.73,14,6,17,0.00
2012-7-8,86.4,75.2,68.7,66.0,60.4,47.8,79,62,34,29.90,29.78,15,6,17,0.00
2012-7-9,80.6,70.6,63.0,61.4,52.7,40.6,83,55,28,29.99,29.89,20,5,20,0.00
2012-7-10,76.5,68.9,59.9,60.2,53.5,40.5,84,59,29,30.10,29.99,13,5,15,0.00
2012-7-11,77.9,70.9,66.2,66.3,60.3,50.8,84,70,40,30.21,30.10,11,4,12,0.00
2012-7-12,79.0,72.2,66.4,63.8,60.4,51.7,81,67,40,30.21,30.11,19,6,19,0.00
2012-7-13,83.5,76.0,70.7,67.5,59.9,54.9,73,58,43,30.22,30.15,15,4,17,0.00
2012-7-14,87.1,77.4,69.6,64.7,61.8,58.4,76,59,41,30.16,30.08,24,5,26,0.00
2012-7-15,85.6,77.6,70.9,70.2,64.5,60.3,78,64,45,30.11,29.90,11,3,13,0.00
2012-7-16,82.2,74.4,70.7,69.3,66.4,62.0,86,76,55,29.90,29.77,15,5,19,0.00
2012-7-17,93.0,80.4,71.4,67.9,65.1,62.9,85,61,39,29.81,29.68,19,4,25,0.00
2012-7-18,86.4,76.3,67.8,70.0,66.6,63.0,93,74,49,29.91,29.69,28,6,31,1.34
2012-7-19,72.1,68.4,65.1,69.0,60.0,48.9,90,75,46,30.04,29.89,11,5,11,0.04
2012-7-20,68.9,66.9,61.3,63.3,57.5,53.1,87,72,59,30.12,30.04,13,5,15,0.00
2012-7-21,71.1,65.9,57.4,61.3,57.1,53.9,88,74,62,30.14,30.07,12,4,12,0.00
2012-7-22,76.1,69.6,63.0,62.5,58.8,54.4,83,69,53,30.16,30.09,17,5,18,0.00
2012-7-23,78.4,71.3,66.0,67.9,62.9,59.3,87,75,62,30.12,29.78,14,3,14,0.00
2012-7-24,87.4,73.0,66.0,69.1,64.9,52.5,92,77,49,29.78,29.54,19,5,19,0.63
2012-7-25,81.0,70.2,62.2,59.9,52.7,48.0,75,56,32,29.83,29.69,21,6,26,0.00
2012-7-26,77.7,69.8,64.9,66.8,60.9,55.2,90,74,62,29.81,29.61,12,2,14,0.00
2012-7-27,71.1,67.0,63.5,68.3,62.2,58.4,91,85,77,29.93,29.61,8,3,10,0.00
2012-7-28,68.9,65.7,62.2,64.6,61.6,57.7,92,87,78,30.03,29.92,14,4,17,0.35
2012-7-29,72.5,66.7,63.3,63.8,61.6,58.0,92,84,66,30.08,29.94,15,4,18,0.00
2012-7-30,73.8,66.9,60.4,63.9,60.4,57.5,91,80,61,30.14,30.07,17,6,19,0.00
2012-7-31,69.1,66.6,63.7,65.1,62.2,59.7,92,86,76,30.14,29.90,18,5,26,0.47
2012-8-1,72.5,68.8,66.6,68.9,64.9,63.3,92,87,79,29.95,29.87,22,6,30,0.28
2012-8-2,76.5,71.9,67.3,69.3,66.3,63.8,91,83,71,29.91,29.84,12,3,14,0.00
2012-8-3,93.0,80.6,71.6,70.8,66.3,59.5,88,65,34,30.11,29.91,15,4,19,0.00
2012-8-4,79.7,75.6,71.2,70.9,67.5,61.6,90,76,56,30.23,30.10,14,5,16,0.00
2012-8-5,82.4,75.3,70.2,71.8,68.5,66.0,92,80,62,30.25,29.94,22,3,23,0.04
2012-8-6,84.2,77.5,70.3,70.3,60.9,51.6,88,59,34,30.00,29.92,21,7,23,0.00
2012-8-7,73.6,69.4,63.5,64.6,59.6,54.7,83,71,58,30.05,29.96,14,4,14,0.00
2012-8-8,75.4,71.3,66.0,66.3,63.5,61.1,86,77,68,30.02,29.95,13,4,15,0.00
2012-8-9,74.8,71.4,68.0,68.0,65.7,62.5,90,82,71,29.99,29.89,16,5,17,0.00
2012-8-10,72.5,69.2,67.1,68.6,66.3,64.4,93,90,85,29.96,29.81,27,8,27,0.91
2012-8-11,74.3,71.1,68.4,70.3,66.9,64.7,93,87,78,29.94,29.83,16,5,17,0.00
2012-8-12,79.7,72.6,68.7,69.6,67.1,65.1,92,84,66,29.96,29.87,11,2,15,0.00
2012-8-13,84.9,74.7,68.5,69.0,63.4,57.3,92,70,41,29.96,29.91,14,4,16,0.00
2012-8-14,81.0,73.4,67.3,65.7,61.4,56.3,79,67,43,29.97,29.92,11,4,13,0.00
2012-8-15,77.0,71.0,65.5,68.7,65.1,60.2,92,82,60,29.97,29.85,30,3,30,0.87
2012-8-16,83.1,72.1,65.7,66.2,62.4,55.5,91,74,42,29.90,29.81,42,7,49,0.51
2012-8-17,83.1,73.0,66.0,67.4,61.9,57.8,85,69,52,29.87,29.78,20,4,26,0.12
2012-8-18,70.2,67.2,63.0,66.1,61.6,58.2,90,82,71,29.91,29.83,11,3,13,0.04
2012-8-19,71.2,65.3,60.1,61.1,57.3,53.2,90,76,60,29.98,29.89,12,5,13,0.00
2012-8-20,71.1,66.6,59.4,63.7,58.8,52.2,86,76,59,29.95,29.87,11,4,11,0.00
2012-8-21,77.5,70.1,65.1,64.0,58.9,50.7,80,68,44,30.09,29.91,10,4,11,0.00
2012-8-22,74.5,68.5,62.2,65.1,58.7,52.3,83,71,50,30.17,30.08,10,5,10,0.00
2012-8-23,78.3,72.2,65.7,65.3,61.9,59.1,81,70,57,30.16,30.09,12,4,16,0.00
2012-8-24,77.0,70.5,66.4,65.9,62.7,58.5,90,77,53,30.24,30.12,12,6,13,0.00
2012-8-25,73.6,69.9,67.8,66.1,64.5,61.6,92,83,67,30.36,30.24,10,5,10,0.00
2012-8-26,73.6,68.8,62.2,63.3,61.0,57.8,90,77,60,30.37,30.25,12,5,12,0.00
2012-8-27,77.2,70.3,62.4,68.1,62.7,58.2,87,77,66,30.25,29.95,15,4,15,0.00
2012-8-28,78.3,73.1,68.2,69.5,65.0,52.7,89,77,55,29.95,29.74,12,4,12,0.31
2012-8-29,70.9,65.6,59.0,57.1,49.9,43.1,72,57,42,29.99,29.88,13,5,16,0.00
2012-8-30,76.5,73.9,71.6,53.1,51.8,49.1,52,46,41,29.98,29.96,19,10,21,0.00
2012-8-31,89.1,78.2,65.8,57.6,52.2,48.7,61,42,26,29.98,29.81,23,8,26,0.00
2012-9-1,79.2,68.8,61.3,62.8,57.9,54.2,86,69,47,30.14,29.85,19,6,19,0.00
2012-9-2,70.7,64.9,61.0,60.4,57.7,53.3,89,78,55,30.16,30.09,12,4,13,0.00
2012-9-3,68.9,64.1,59.2,60.4,58.1,55.1,92,81,70,30.25,30.16,15,6,17,0.00
2012-9-4,68.2,64.7,62.6,65.6,60.7,54.6,92,87,75,30.18,29.90,18,5,22,0.16
2012-9-5,80.6,70.8,65.7,72.5,65.9,61.2,93,85,61,29.90,29.73,15,4,19,1.18
2012-9-6,73.2,67.5,63.9,64.2,61.7,59.5,91,82,64,29.93,29.85,13,3,13,0.00
2012-9-7,77.7,70.6,66.2,67.4,65.0,61.9,91,83,59,29.95,29.86,12,3,12,0.20
2012-9-8,74.3,69.6,65.7,69.6,64.6,59.1,93,84,69,29.93,29.65,22,6,23,0.35
2012-9-9,71.1,63.8,58.3,59.0,55.5,47.9,89,75,44,29.86,29.71,15,5,18,0.00
2012-9-10,66.6,60.5,54.3,55.2,46.7,40.2,90,62,42,30.04,29.85,23,8,26,0.00
2012-9-11,65.3,58.6,50.0,54.6,46.3,40.6,77,64,43,30.27,30.04,16,6,16,0.00
2012-9-12,66.9,61.0,51.6,57.7,51.4,45.2,82,71,54,30.38,30.27,10,3,12,0.00
2012-9-13,73.0,66.6,60.6,60.5,58.2,56.2,88,75,60,30.37,30.28,15,3,15,0.00
2012-9-14,72.7,66.5,61.0,60.8,58.7,57.1,88,76,63,30.28,30.09,9,3,11,0.00
2012-9-15,72.3,65.1,55.4,60.0,51.4,42.0,85,64,37,30.10,29.98,23,6,23,0.00
2012-9-16,70.2,59.8,51.6,45.7,42.0,35.0,79,54,30,30.10,30.00,20,6,21,0.00
2012-9-17,64.4,58.4,48.0,56.3,48.4,37.4,83,70,51,30.12,30.05,12,3,13,0.00
2012-9-18,70.5,64.1,58.6,63.0,58.1,54.4,87,81,75,30.07,29.71,32,12,35,0.00
2012-9-19,70.5,64.9,57.0,65.0,49.6,35.4,91,61,29,30.21,29.69,31,7,33,0.67
2012-9-20,60.3,56.6,49.3,48.1,44.2,40.6,81,63,50,30.28,30.17,18,7,19,0.00
2012-9-21,60.4,55.1,48.6,54.6,49.0,43.9,87,80,71,30.19,30.04,15,5,15,0.00
2012-9-22,63.9,59.0,55.4,57.7,54.9,52.2,91,86,74,30.04,29.85,12,4,13,0.00
2012-9-23,69.4,63.2,53.4,61.2,48.5,36.2,91,62,31,30.09,29.81,21,7,23,0.00
2012-9-24,65.7,56.6,46.9,41.6,38.8,33.8,75,53,32,30.14,30.07,19,6,21,0.00
2012-9-25,72.5,61.1,49.6,52.4,43.9,38.6,73,55,37,30.19,30.12,16,4,19,0.00
2012-9-26,70.5,64.6,59.0,60.7,57.0,51.7,84,77,68,30.16,30.01,15,3,15,0.00
2012-9-27,67.1,61.9,53.4,61.2,51.9,39.8,87,71,38,30.26,30.01,17,6,17,0.00
2012-9-28,58.6,55.8,51.4,55.0,51.1,47.1,90,84,73,30.26,29.99,24,8,26,0.51
2012-9-29,57.6,55.4,52.5,54.5,51.5,49.1,91,87,82,29.99,29.88,16,6,17,0.08
2012-9-30,59.0,55.8,54.5,53.9,51.9,50.5,90,87,78,29.93,29.72,62,6,63,0.31
2012-10-1,66.4,59.1,51.8,50.8,48.4,45.5,86,68,56,29.95,29.70,26,8,27,0.00
2012-10-2,68.9,61.2,56.3,58.6,53.4,49.7,90,76,55,30.08,29.94,13,4,13,0.04
2012-10-3,62.6,60.6,59.2,59.6,57.7,55.9,92,90,88,30.17,30.05,59,9,60,0.00
2012-10-4,60.8,59.3,58.5,58.1,56.8,56.0,92,91,90,30.18,30.05,27,4,27,0.04
2012-10-5,66.6,61.6,58.6,59.0,57.3,55.4,92,86,70,30.06,29.93,17,5,18,0.00
2012-10-6,74.1,64.2,54.3,60.7,55.4,44.2,87,73,53,29.93,29.72,19,4,20,0.12
2012-10-7,57.4,52.5,47.1,44.8,40.5,35.2,85,65,44,30.08,29.93,11,4,15,0.08
2012-10-8,55.9,50.5,43.0,43.6,41.5,37.2,90,72,53,30.33,30.06,13,5,15,0.00
2012-10-9,56.5,54.6,50.9,48.3,44.8,40.3,81,69,59,30.32,30.15,23,11,23,0.00
2012-10-10,60.1,56.6,53.4,57.7,53.0,46.4,92,88,77,30.15,29.73,21,9,21,0.00
2012-10-11,57.9,51.9,46.0,49.7,35.6,30.2,79,55,36,30.14,29.78,28,10,31,0.00
2012-10-12,53.6,48.0,38.7,40.6,31.6,20.4,81,54,33,30.36,30.00,21,8,26,0.04
2012-10-13,52.7,43.6,33.6,32.4,23.2,19.3,64,46,28,30.46,30.32,19,7,21,0.00
2012-10-14,66.0,55.6,48.4,53.5,46.5,30.3,87,72,49,30.34,29.96,18,5,24,0.39
2012-10-15,72.0,62.4,59.5,58.9,55.8,53.2,88,79,59,29.96,29.62,10,3,13,0.00
2012-10-16,62.6,53.2,42.3,59.6,40.7,31.8,90,64,42,29.90,29.54,31,9,34,0.12
2012-10-17,53.6,47.3,37.9,44.6,35.9,30.0,79,66,45,30.02,29.88,12,4,14,0.00
2012-10-18,57.0,52.8,43.7,50.8,46.6,40.1,89,79,67,30.15,30.01,15,6,17,0.00
2012-10-19,59.9,57.5,54.1,56.9,53.9,50.4,91,88,84,30.11,29.74,33,11,33,0.00
2012-10-20,69.8,61.5,58.1,60.9,54.6,42.5,92,80,42,29.79,29.63,20,5,20,0.12
2012-10-21,63.7,56.2,48.7,42.4,39.3,35.2,72,54,36,29.89,29.74,26,8,30,0.00
2012-10-22,65.1,56.7,50.2,41.5,38.8,36.1,70,53,35,30.01,29.88,32,8,33,0.00
2012-10-23,64.8,55.4,49.5,47.6,40.5,35.1,83,59,36,30.12,30.01,20,6,24,0.00
2012-10-24,53.4,49.7,43.7,42.1,37.4,33.4,82,63,51,30.23,30.12,12,4,14,0.00
2012-10-25,57.2,50.3,41.7,48.8,43.2,37.2,86,77,60,30.34,30.22,9,4,9,0.00
2012-10-26,59.4,54.3,47.3,52.3,46.9,41.6,86,76,61,30.28,30.14,11,3,12,0.00
2012-10-27,57.4,53.4,46.6,51.9,48.3,43.5,90,83,69,30.14,30.03,15,5,15,0.00
2012-10-28,55.8,53.4,51.1,50.6,48.8,46.8,90,84,77,30.03,29.79,20,7,21,0.00
2012-10-29,60.8,56.7,53.4,57.2,53.3,49.8,92,88,84,29.79,29.21,58,23,61,0.75
2012-10-30,59.0,57.8,53.6,55.9,54.0,49.8,91,87,84,29.63,29.33,29,15,29,0.43
2012-10-31,57.7,55.0,50.0,54.4,47.6,38.3,92,77,63,29.58,29.48,17,6,18,0.00
2012-11-1,56.5,51.3,46.4,42.2,38.2,34.8,75,61,49,29.58,29.51,18,4,18,0.00
2012-11-2,52.5,48.1,44.4,39.4,37.2,33.6,80,66,50,29.61,29.53,16,6,20,0.00
2012-11-3,52.3,46.1,42.1,35.0,32.1,29.3,69,59,45,29.79,29.60,23,9,27,0.00
2012-11-4,51.8,43.6,37.6,31.9,29.8,26.0,70,58,46,29.94,29.78,25,9,26,0.00
2012-11-5,43.5,38.0,31.3,26.3,20.6,14.5,63,49,36,30.12,29.94,17,8,21,0.00
2012-11-6,41.7,34.9,28.4,28.0,18.2,12.9,61,51,35,30.24,30.12,20,6,21,0.00
2012-11-7,44.1,39.9,32.0,33.5,30.0,25.5,90,68,53,30.19,29.73,28,10,28,0.16
2012-11-8,39.7,37.5,32.0,35.5,33.9,29.4,91,87,75,29.74,29.59,48,12,55,0.20
2012-11-9,53.1,44.2,37.6,32.0,25.9,19.3,74,50,29,30.10,29.73,26,11,27,0.00
2012-11-10,54.3,45.9,39.0,38.0,30.5,21.8,76,56,29,30.47,30.08,24,7,24,0.00
2012-11-11,58.1,51.4,43.7,47.1,42.9,34.9,78,73,63,30.52,30.42,19,6,19,0.00
2012-11-12,63.3,55.0,50.2,52.6,49.3,45.5,90,81,62,30.49,30.25,13,4,14,0.00
2012-11-13,61.0,49.8,41.0,56.7,43.7,28.4,90,80,60,30.42,30.14,48,7,49,0.20
2012-11-14,45.1,40.4,36.0,30.0,25.7,22.5,66,56,41,30.54,30.42,13,6,15,0.00
2012-11-15,41.0,36.9,34.0,30.4,27.9,24.4,81,70,62,30.47,30.30,18,7,19,0.00
2012-11-16,44.4,38.0,34.2,31.7,28.7,24.0,83,69,53,30.42,30.28,15,6,15,0.00
2012-11-17,46.4,39.4,33.8,32.7,28.3,23.9,80,64,52,30.66,30.42,16,7,18,0.00
2012-11-18,46.6,38.2,31.5,31.6,28.3,26.2,83,68,46,30.72,30.62,18,8,18,0.00
2012-11-19,47.5,38.4,31.6,35.8,30.0,22.6,86,72,60,30.62,30.27,16,7,17,0.00
2012-11-20,48.0,39.5,32.2,36.6,31.8,28.8,89,74,62,30.27,30.15,12,5,36,0.00
2012-11-21,49.3,43.6,38.5,41.0,34.6,25.8,83,71,60,30.26,30.16,15,6,17,0.00
2012-11-22,50.4,44.9,37.2,43.2,39.3,33.7,88,81,70,30.29,30.14,10,5,11,0.00
2012-11-23,49.3,45.1,40.5,44.0,40.6,37.2,90,84,77,30.14,29.65,15,4,16,0.00
2012-11-24,48.2,42.5,32.5,43.7,25.3,12.7,85,53,35,29.65,29.51,31,12,34,0.00
2012-11-25,38.8,34.8,31.5,21.1,15.0,6.4,56,44,27,29.86,29.64,30,12,31,0.00
2012-11-26,45.7,38.2,33.4,22.7,20.3,16.2,62,49,32,30.24,29.86,29,10,29,0.00
2012-11-27,38.8,34.7,32.0,31.9,28.1,22.4,88,77,57,30.34,30.22,60,7,63,0.00
2012-11-28,35.2,33.1,31.5,30.3,24.0,21.2,87,69,58,30.22,30.12,18,6,18,0.00
2012-11-29,42.4,36.9,31.3,24.2,21.4,17.0,67,54,41,30.26,30.14,24,10,24,0.00
2012-11-30,39.9,32.4,29.7,24.0,12.3,3.9,60,43,30,30.56,30.19,18,6,20,0.00
2012-12-1,31.5,29.9,28.4,27.7,21.2,10.9,87,72,43,30.63,30.49,16,8,17,0.00
2012-12-2,52.5,41.0,30.9,46.2,35.8,27.1,88,82,67,30.50,30.04,16,5,16,0.00
2012-12-3,57.6,50.6,40.8,45.0,40.3,34.9,82,69,49,30.30,30.02,31,8,32,0.00
2012-12-4,54.9,45.6,38.3,51.2,41.8,34.2,89,86,81,30.33,29.99,15,4,16,0.00
2012-12-5,56.8,49.4,32.5,51.3,35.3,13.2,88,60,41,30.12,29.83,27,11,31,0.00
2012-12-6,39.6,33.2,28.6,18.5,14.8,13.1,58,47,35,30.31,30.12,20,7,26,0.00
2012-12-7,45.0,39.7,31.8,40.3,30.2,17.0,87,69,53,30.30,30.04,16,5,16,0.00
2012-12-8,45.9,43.4,41.9,42.5,40.4,38.9,90,89,86,30.05,29.86,57,7,57,0.08
2012-12-9,46.4,44.2,40.8,42.6,34.5,27.5,87,69,54,30.31,29.95,21,7,22,0.04
2012-12-10,57.7,50.6,44.1,55.1,47.6,39.3,92,90,82,30.18,29.50,29,6,29,0.31
2012-12-11,56.1,44.2,34.3,52.3,33.3,20.7,89,66,52,30.13,29.53,20,7,30,0.00
2012-12-12,38.3,33.5,30.2,21.6,19.9,18.2,66,57,45,30.43,30.13,12,5,17,0.00
2012-12-13,42.6,35.5,29.5,28.9,23.6,21.2,73,62,48,30.47,30.28,12,5,12,0.00
2012-12-14,49.5,39.1,32.0,25.4,22.0,16.3,67,52,27,30.28,30.05,26,8,26,0.00
2012-12-15,39.7,36.3,33.8,25.0,22.6,18.7,66,57,45,30.34,30.15,23,8,25,0.00
2012-12-16,39.2,36.4,34.2,35.3,27.7,19.9,89,71,55,30.34,30.08,27,15,28,0.24
2012-12-17,46.4,43.4,39.0,43.9,40.2,34.5,91,88,80,30.08,29.80,29,14,30,0.04
2012-12-18,50.0,46.4,42.1,47.3,43.6,37.6,92,90,83,29.81,29.39,46,12,53,0.79
2012-12-19,44.4,41.6,37.9,38.3,32.0,27.6,88,69,55,30.03,29.42,28,11,55,0.00
2012-12-20,42.1,38.5,33.6,35.6,29.2,26.3,81,69,56,30.21,30.02,20,6,20,0.00
2012-12-21,52.5,45.6,39.4,48.1,39.6,31.5,90,80,66,30.05,29.05,48,19,49,0.94
2012-12-22,39.9,35.4,29.7,31.6,21.6,11.6,72,58,44,29.62,29.22,31,13,32,0.00
2012-12-23,38.5,33.7,28.2,23.0,16.4,11.3,58,49,39,29.86,29.61,26,10,30,0.00
2012-12-24,39.9,35.0,32.0,20.0,17.0,14.0,58,48,35,30.06,29.85,23,7,23,0.00
2012-12-25,34.0,31.7,27.3,25.7,21.8,15.2,82,67,51,30.21,29.98,18,8,19,0.00
2012-12-26,40.3,31.4,21.9,35.1,21.0,11.0,89,65,54,30.31,29.93,50,14,50,0.24
2012-12-27,48.4,39.4,30.4,45.1,35.8,25.6,90,87,77,29.93,29.20,51,20,55,1.30
2012-12-28,36.5,32.1,28.0,26.7,20.6,17.4,80,62,52,30.00,29.59,29,12,31,0.00
2012-12-29,39.4,31.7,28.2,34.6,25.3,20.8,90,77,65,30.00,29.37,40,5,45,0.47
2012-12-30,29.7,26.5,21.4,26.2,16.9,6.1,90,68,50,29.93,29.38,68,17,68,0.00
2012-12-31,33.8,28.1,20.7,22.4,15.8,6.2,65,59,52,30.02,29.76,25,8,25,0.00
2013-1-1,36.7,32.0,19.6,23.3,14.3,1.1,60,48,37,29.91,29.70,30,11,33,0.00